Torna al catalogo

QIANFAN-221

AttivoComunicazioniPO
NORAD 69850·PAYLOAD·🇨🇳 China

Lanciato Jul 5, 2026 da Wenchang Space Launch Site

Loading…

Prossimi Passaggi (prossime 24 ore)

TLE

AggiornatoSource: Space-Track

Epoca: Sep 14, 2026, 21:13 UTC

1 69850U 26155C   26257.88464057 -.01876514  00000-0 -20283+1 0  9990
2 69850  89.0071  54.0773 0033544  28.7755 331.5252 13.77413832 10083

Traccia QIANFAN-221 in tempo reale con AllMySat

Download on the App Store